This demonstration page uses our WeatherBlox Daily Observations layout. Learn more.

Left ArrowRight Arrow

40.92501, -98.34201

Hourly Observations for June 3, 2015

Temp ( °F °C ) Dew Point ( °F °C ) Humidity (%) Winds ( mph kmh ) Pressure ( in mb ) Visibility ( mi km ) Precip ( " mm )
12:53 am 00:53 Clear 68 20 65 18.3 90 90 SE 13 20 29.82 1010 10 16 0.00 0.00
1:50 am 01:50 Mostly Cloudy with Nearby Thunderstorms 68 20 59 15 73 73 NNW 29 46 29.91 1013 8 13 0.00 0.00
1:53 am 01:53 Mostly Cloudy with Nearby Thunderstorms 66 18.9 56 13.3 70 70 NNW 29 46 29.94 1014 7 11 0.00 0.03
2:03 am 02:03 Cloudy with Strong Thunderstorms 61 16 57 14 88 88 N 25 41 29.91 1013 2 3 0.00 0.00
2:12 am 02:12 Cloudy with Strong Thunderstorms 61 16 57 14 88 88 NNW 18 30 29.91 1013 2 3 0.00 0.00
2:22 am 02:22 Cloudy with Strong Thunderstorms 60 15.6 58 14.4 93 93 N 18 30 29.91 1013 2 3 0.39 9.91
2:32 am 02:32 Cloudy with Thunderstorms 61 16 57 14 88 88 NNW 7 11 29.91 1013 4 6 0.00 0.00
2:42 am 02:42 Cloudy with Nearby Thunderstorms 61 16 59 15 94 94 WNW 3 6 29.85 1011 3 5 0.00 0.00
2:53 am 02:53 Cloudy with Nearby Thunderstorms 61 16.1 58 14.4 90 90 NNE 8 13 29.86 1011 3 5 0.55 13.97
3:40 am 03:40 Cloudy with Thunderstorms 61 16.1 59 15 93 93 SSE 6 9 29.83 1010 10 16 0.04 1.02
3:53 am 03:53 Cloudy with Thunderstorms 61 16.1 59 15 93 93 E 7 11 29.85 1011 10 16 0.04 1.02
4:53 am 04:53 Cloudy with Thunderstorms 61 16.1 59 15 93 93 E 10 17 29.85 1011 10 16 0.04 1.02
5:03 am 05:03 Cloudy with Nearby Thunderstorms 61 16 59 15 94 94 SE 6 9 29.85 1011 10 16 0.00 0.00
5:13 am 05:13 Cloudy with Thunderstorms 61 16 59 15 94 94 VRB 3 6 29.91 1013 6 10 0.00 0.00
5:53 am 05:53 Cloudy with Nearby Thunderstorms 61 16.1 59 15 93 93 SSW 3 6 29.94 1014 7 11 0.19 4.83
6:19 am 06:19 Cloudy with Light Rain 61 16.1 59 15 93 93 Calm 29.94 1014 7 11 0.02 0.51
6:27 am 06:27 Cloudy with Nearby Thunderstorms 61 16.1 60 15.6 97 97 SE 6 9 29.94 1014 7 11 0.03 0.76
6:36 am 06:36 Cloudy with Thunderstorms 61 16.1 59 15 93 93 E 7 11 29.91 1013 9 14 0.04 1.02
6:51 am 06:51 Cloudy with Light Rain 61 16 59 15 94 94 SE 7 11 29.91 1013 10 16 0.00 0.00
6:53 am 06:53 Mostly Cloudy with Light Rain 61 16.1 59 15 93 93 ESE 8 13 29.91 1013 10 16 0.04 1.02
7:42 am 07:42 Sunny with Nearby Thunderstorms 63 17 59 15 88 88 SSW 8 13 29.85 1011 10 16 0.00 0.00
7:53 am 07:53 Partly Cloudy with Thunderstorms 61 16.1 59 15 93 93 SSE 9 15 29.86 1011 10 16 0.01 0.25
8:08 am 08:08 Mostly Cloudy with Nearby Thunderstorms 61 16 59 15 94 94 SSE 20 31 29.80 1009 7 11 0.00 0.00
8:15 am 08:15 Mostly Cloudy with Light Rain 61 16 59 15 94 94 SSE 18 30 29.80 1009 10 16 0.00 0.00
8:22 am 08:22 Mostly Cloudy with Nearby Thunderstorms 61 16.1 59 15 93 93 SE 20 31 29.77 1008 10 16 0.06 1.52
8:37 am 08:37 Mostly Sunny 61 16.1 59 15 93 93 SSE 17 28 29.80 1009 10 16 0.06 1.52
8:53 am 08:53 Sunny 62 16.7 60 15.6 93 93 S 13 20 29.81 1009 10 16 0.06 1.52
9:53 am 09:53 Sunny 66 18.9 60 15.6 81 81 SW 5 7 29.84 1011 10 16 0.00 0.00
10:53 am 10:53 Mostly Sunny 68 20 60 15.6 76 76 WSW 9 15 29.89 1012 10 16 0.00 0.00
11:53 am 11:53 Sunny 70 21.1 60 15.6 71 71 WNW 7 11 29.91 1013 10 16 0.00 0.00
12:53 pm 12:53 Mostly Sunny 73 22.8 62 16.7 69 69 VRB 3 6 29.91 1013 10 16 0.00 0.00
1:53 pm 13:53 Sunny 76 24.4 60 15.6 58 58 Calm 29.92 1013 10 16 0.00 0.00
2:53 pm 14:53 Sunny 77 25 61 16.1 58 58 VRB 3 6 29.91 1013 10 16 0.00 0.00
3:24 pm 15:24 Partly Cloudy 77 25 62 16.7 60 60 N 7 11 29.85 1011 10 16 0.00 0.00
3:53 pm 15:53 Sunny 78 25.6 61 16.1 56 56 NE 6 9 29.90 1013 10 16 0.00 0.00
4:53 pm 16:53 Sunny 79 26.1 60 15.6 52 52 NNE 8 13 29.90 1013 10 16 0.00 0.00
5:53 pm 17:53 Mostly Sunny 77 25 62 16.7 60 60 ESE 7 11 29.90 1013 10 16 0.00 0.00
6:53 pm 18:53 Sunny 77 25 62 16.7 60 60 E 8 13 29.89 1012 10 16 0.00 0.00
7:53 pm 19:53 Sunny 77 25 62 16.7 60 60 ESE 6 9 29.90 1013 10 16 0.00 0.00
8:53 pm 20:53 Sunny 72 22.2 65 18.3 79 79 E 7 11 29.90 1013 10 16 0.00 0.00
9:53 pm 21:53 Clear 70 21.1 64 17.8 82 82 E 6 9 29.91 1013 10 16 0.00 0.00
10:53 pm 22:53 Clear 68 20 63 17.2 84 84 ESE 5 7 29.92 1013 10 16 0.00 0.00
11:53 pm 23:53 Mostly Cloudy 68 20 63 17.2 84 84 SE 5 7 29.92 1013 10 16 0.00 0.00

Powered by AerisWeather